Regional Weather Roundup
Issued by NWS Goodland, KS

Home | Current Version | Previous Version | Text Only | Print | Product List | Glossary Off
Versions: 1 2 3 4 5 6 7 8 9 10 11 12 13 14 15 16 17 18 19 20 21 22 23 24 25 26 27 28 29 30 31 32 33 34 35 36 37 38 39 40 41 42 43 44 45 46 47 48 49 50

000
ASUS43 KGLD 291759
RWRGLD

GOODLAND FORECAST AREA HOURLY WEATHER ROUNDUP
NATIONAL WEATHER SERVICE GOODLAND KS
1200 PM MDT SUN MAY 29 2016

...OFFICIAL OBSERVATIONS...

CITY           SKY/WX    TMP DP  RH WIND       PRES   REMARKS
GOODLAND KS    SUNNY     77  54  44 S15       30.10F
HILL CITY KS   MOSUNNY   86  56  35 SW9       30.09F
IMPERIAL NEB   SUNNY     76  55  48 S9        30.10F
MCCOOK NEB     SUNNY     79  57  46 VRB5      30.08F
AKRON CO       SUNNY     74  44  34 CALM      30.14F
BURLINGTON CO  SUNNY     78  50  37 S17       30.12F
LIMON CO       CLOUDY    71  48  43 SE7       30.16F
$$

...UNOFFICIAL OBSERVATIONS...

CITY           SKY/WX    TMP DP  RH WIND       PRES   REMARKS
GOVE KS          N/A     80  32  17 MISG        N/A
SHARON SPRINGS   N/A     78  61  55 SE14        N/A
TRIBUNE KS     MOSUNNY   82  57  42 S16G24    30.13F
KIT CARSON CO    N/A     74  52  45 MISG        N/A
YUMA CO          N/A     78  49  36 CALM        N/A
$$




USA.gov is the U.S. government's official web portal to all federal, state and local government web resources and services.